OneWeb SL0348

operational
NORAD ID: 49213 Int'l Des: 2021-083 Owner: ONEWEBN Country: UK Constellation: oneweb
LEOCIRCULARPOLARONEWEB_TYPE

OneWeb SL0348について

説明を読み込み中...

リアルタイム位置

3D地球を読み込み中...

次回通過

高度履歴

Altitude vs Time

uPlot chart will show altitude changes over time

軌道要素

1 49213U 21083AD 26036.75184816 .00000128 00000-0 28298-3 0 9993
2 49213 87.9218 300.6707 0002213 78.3933 281.7449 13.20772619219465
Epoch: Feb 5, 2026 • Age: 21 hours

現在のステータス

高度 1192.5 km
速度 7.26 km/s
衛星直下点 69.62°N, 119.17°E
打ち上げ日 Sep 14, 2021
運用期間 4.3 years
タイプ internet

技術仕様

分類 Payload
質量 148.00 kg
乾燥質量 140.00 kg
総質量 148.00 kg
長さ 1.30 m
直径 1.00 m
スパン 5.00 m
形状 Trapezoid+2 pan
製造者 ONEWUS
バスタイプ ARROW
フェーズステータス In Orbit
所有者/国 ONEWEBN/UK

大規模コンステレーション

Loading constellations...